Location: ??????
(31.2056°N, 45.3906°E)
Time: 16:14:09
(UTC+00:00)

FREGAT/IRIS - Pass Details

Date: 09 April 2020
Orbit: 327 x 333 km, 96.9° (Epoch: 27 May)

Event Time Altitude Azimuth Distance (km) Brightness Sun altitude
Exits shadow 16:00:46 13° 98° (E) 1,146 4.3 -8.7°
Maximum altitude 16:01:46 15° 73° (ENE) 1,056 4.3 -8.9°
Drops below altitude 10° 16:03:23 10° 37° (NE) 1,288 5.0 -9.2°
Sets 16:05:51 0° 11° (NNE) 2,136 6.4 -9.7°
